Hourly Weather Otmuchow

Today, 23 July, Friday

Time Temperature Precipitation Wind Pressure Humidity
00:00 +18°C° 0 mm 1 mps 746 mmHg 72%
01:00 +16°C° 0 mm 1 mps 745 mmHg 73%
02:00 +16°C° 0 mm 1 mps 745 mmHg 74%
03:00 +16°C° 0 mm 1 mps 745 mmHg 74%
04:00 +15°C° 0 mm 1 mps 745 mmHg 75%
05:00 +18°C° 0 mm 1 mps 745 mmHg 70%
06:00 +19°C° 0 mm 1 mps 745 mmHg 66%
07:00 +19°C° 0 mm 0 mps 745 mmHg 63%
08:00 +22°C° 0 mm 1 mps 745 mmHg 58%
09:00 +23°C° 0 mm 1 mps 745 mmHg 53%
10:00 +25°C° 0 mm 1 mps 745 mmHg 48%
11:00 +25°C° 0 mm 1 mps 744 mmHg 47%
12:00 +25°C° 0 mm 1 mps 744 mmHg 47%
13:00 +25°C° 0 mm 1 mps 744 mmHg 47%
14:00 +25°C° 0 mm 1 mps 744 mmHg 47%
15:00 +26°C° 0 mm 1 mps 744 mmHg 47%
16:00 +24°C° 0 mm 0 mps 744 mmHg 47%
17:00 +25°C° 0 mm 1 mps 744 mmHg 52%
18:00 +24°C° 0 mm 1 mps 744 mmHg 57%
19:00 +23°C° 0 mm 1 mps 743 mmHg 62%
20:00 +21°C° 0 mm 1 mps 743 mmHg 64%
21:00 +20°C° 0 mm 1 mps 744 mmHg 67%
22:00 +19°C° 0 mm 1 mps 744 mmHg 70%
23:00 +19°C° 0 mm 1 mps 743 mmHg 71%

Tomorrow, 24 July, Saturday

Time Temperature Precipitation Wind Pressure Humidity
00:00 +18°C° 0 mm 1 mps 743 mmHg 73%
01:00 +18°C° 0 mm 1 mps 743 mmHg 74%
02:00 +16°C° 0 mm 1 mps 743 mmHg 74%
03:00 +16°C° 0 mm 1 mps 743 mmHg 75%
04:00 +16°C° 0 mm 1 mps 743 mmHg 75%
05:00 +19°C° 0 mm 1 mps 743 mmHg 70%
06:00 +20°C° 0 mm 1 mps 743 mmHg 65%
07:00 +22°C° 0 mm 1 mps 743 mmHg 60%
08:00 +24°C° 0 mm 1 mps 743 mmHg 55%
09:00 +26°C° 0 mm 2 mps 743 mmHg 49%
10:00 +27°C° 0 mm 2 mps 743 mmHg 44%
11:00 +28°C° 0 mm 2 mps 743 mmHg 43%
12:00 +28°C° 0 mm 2 mps 742 mmHg 42%
13:00 +28°C° 0 mm 2 mps 742 mmHg 42%
14:00 +28°C° 0 mm 1 mps 742 mmHg 43%
15:00 +28°C° 0 mm 1 mps 742 mmHg 44%
16:00 +28°C° 0 mm 1 mps 742 mmHg 46%
17:00 +27°C° 0 mm 1 mps 742 mmHg 51%
18:00 +25°C° 0 mm 1 mps 742 mmHg 56%
19:00 +24°C° 0 mm 2 mps 741 mmHg 61%
20:00 +23°C° 0 mm 2 mps 741 mmHg 64%
21:00 +21°C° 0 mm 2 mps 741 mmHg 68%
22:00 +19°C° 0 mm 2 mps 741 mmHg 71%
23:00 +20°C° 0 mm 2 mps 741 mmHg 70%

Day after tomorrow, 25 July, Sunday

Time Temperature Precipitation Wind Pressure Humidity
00:00 +20°C° 0 mm 2 mps 741 mmHg 69%
01:00 +21°C° 0 mm 1 mps 741 mmHg 68%
02:00 +21°C° 0 mm 1 mps 741 mmHg 68%
03:00 +21°C° 0 mm 1 mps 741 mmHg 68%
04:00 +20°C° 0 mm 2 mps 740 mmHg 69%
05:00 +21°C° 0 mm 2 mps 741 mmHg 67%
06:00 +23°C° 0 mm 2 mps 741 mmHg 64%
07:00 +24°C° 0 mm 2 mps 741 mmHg 62%
08:00 +25°C° 0 mm 3 mps 741 mmHg 57%
09:00 +27°C° 0 mm 3 mps 741 mmHg 52%
10:00 +28°C° 0 mm 4 mps 741 mmHg 47%
11:00 +26°C° 0.6 mm 3 mps 741 mmHg 60%
12:00 +23°C° 0.6 mm 2 mps 742 mmHg 72%
13:00 +20°C° 0.6 mm 2 mps 742 mmHg 85%
14:00 +19°C° 0.4 mm 2 mps 742 mmHg 87%
15:00 +20°C° 0.4 mm 1 mps 742 mmHg 89%
16:00 +20°C° 0.4 mm 1 mps 741 mmHg 91%
17:00 +20°C° 0 mm 1 mps 741 mmHg 92%
18:00 +19°C° 0 mm 1 mps 741 mmHg 92%
19:00 +18°C° 0 mm 2 mps 741 mmHg 93%
20:00 +19°C° 0 mm 1 mps 741 mmHg 94%
21:00 +19°C° 0 mm 1 mps 741 mmHg 94%
22:00 +18°C° 0 mm 1 mps 741 mmHg 95%
23:00 +18°C° 0 mm 1 mps 741 mmHg 95%

26 July, Monday

Time Temperature Precipitation Wind Pressure Humidity
00:00 +18°C° 0 mm 1 mps 741 mmHg 95%
01:00 +16°C° 0 mm 1 mps 740 mmHg 96%
02:00 +16°C° 0 mm 1 mps 740 mmHg 95%
03:00 +16°C° 0 mm 1 mps 740 mmHg 94%
04:00 +16°C° 0 mm 2 mps 740 mmHg 94%
05:00 +19°C° 0 mm 1 mps 741 mmHg 89%
06:00 +20°C° 0 mm 1 mps 741 mmHg 84%
07:00 +21°C° 0 mm 1 mps 741 mmHg 79%
08:00 +24°C° 0 mm 1 mps 741 mmHg 70%
09:00 +26°C° 0 mm 1 mps 741 mmHg 61%
10:00 +26°C° 0 mm 0 mps 741 mmHg 52%
11:00 +29°C° 0 mm 1 mps 741 mmHg 49%
12:00 +30°C° 0 mm 1 mps 741 mmHg 45%
13:00 +31°C° 0 mm 1 mps 741 mmHg 42%
14:00 +31°C° 0 mm 1 mps 741 mmHg 43%
15:00 +31°C° 0 mm 1 mps 741 mmHg 43%
16:00 +31°C° 0 mm 1 mps 741 mmHg 44%
17:00 +29°C° 0 mm 1 mps 741 mmHg 51%
18:00 +28°C° 0 mm 1 mps 740 mmHg 57%
19:00 +26°C° 0 mm 1 mps 740 mmHg 63%
20:00 +25°C° 0.4 mm 2 mps 740 mmHg 71%
21:00 +23°C° 0.4 mm 2 mps 741 mmHg 79%
22:00 +20°C° 0.4 mm 3 mps 741 mmHg 87%
23:00 +20°C° 1.2 mm 2 mps 741 mmHg 90%

27 July, Tuesday

Time Temperature Precipitation Wind Pressure Humidity
00:00 +21°C° 1.2 mm 1 mps 741 mmHg 93%
01:00 +20°C° 1.2 mm 1 mps 741 mmHg 96%
02:00 +20°C° 0.3 mm 1 mps 742 mmHg 95%
03:00 +20°C° 0.3 mm 1 mps 742 mmHg 94%
04:00 +20°C° 0.3 mm 1 mps 742 mmHg 94%
05:00 +21°C° 0 mm 1 mps 742 mmHg 89%
06:00 +22°C° 0 mm 1 mps 742 mmHg 84%
07:00 +23°C° 0 mm 1 mps 743 mmHg 80%
08:00 +25°C° 0 mm 1 mps 743 mmHg 71%
09:00 +26°C° 0 mm 1 mps 743 mmHg 63%
10:00 +28°C° 0 mm 1 mps 743 mmHg 54%
11:00 +29°C° 0 mm 2 mps 743 mmHg 51%
12:00 +30°C° 0 mm 2 mps 743 mmHg 48%
13:00 +31°C° 0 mm 3 mps 743 mmHg 45%
14:00 +30°C° 0 mm 2 mps 743 mmHg 46%
15:00 +30°C° 0 mm 2 mps 743 mmHg 47%
16:00 +30°C° 0 mm 2 mps 743 mmHg 47%
17:00 +29°C° 0 mm 2 mps 742 mmHg 53%
18:00 +27°C° 0 mm 1 mps 742 mmHg 59%
19:00 +26°C° 0 mm 1 mps 742 mmHg 65%
20:00 +25°C° 0.2 mm 1 mps 742 mmHg 69%
21:00 +24°C° 0.2 mm 1 mps 742 mmHg 73%
22:00 +22°C° 0.2 mm 1 mps 742 mmHg 77%
23:00 +22°C° 0.5 mm 1 mps 742 mmHg 80%

28 July, Wednesday

Time Temperature Precipitation Wind Pressure Humidity
00:00 +22°C° 0.5 mm 1 mps 742 mmHg 83%
01:00 +21°C° 0.5 mm 1 mps 742 mmHg 85%
02:00 +20°C° 0.5 mm 2 mps 742 mmHg 86%
03:00 +20°C° 0.5 mm 2 mps 743 mmHg 88%
04:00 +19°C° 0.5 mm 3 mps 743 mmHg 89%
05:00 +19°C° 0.6 mm 3 mps 743 mmHg 90%
06:00 +18°C° 0.6 mm 2 mps 743 mmHg 91%
07:00 +17°C° 0.6 mm 2 mps 744 mmHg 92%
08:00 +19°C° 0.6 mm 2 mps 744 mmHg 85%
09:00 +21°C° 0.6 mm 2 mps 744 mmHg 77%
10:00 +23°C° 0.6 mm 1 mps 744 mmHg 69%
11:00 +24°C° 0 mm 1 mps 744 mmHg 63%
12:00 +26°C° 0 mm 2 mps 744 mmHg 57%
13:00 +27°C° 0 mm 2 mps 744 mmHg 51%
14:00 +27°C° 0 mm 2 mps 744 mmHg 53%
15:00 +26°C° 0 mm 2 mps 744 mmHg 56%
16:00 +26°C° 0 mm 2 mps 744 mmHg 58%
17:00 +25°C° 0 mm 2 mps 744 mmHg 62%
18:00 +24°C° 0 mm 1 mps 744 mmHg 66%
19:00 +23°C° 0 mm 1 mps 743 mmHg 71%
20:00 +22°C° 0 mm 1 mps 744 mmHg 72%
21:00 +21°C° 0 mm 1 mps 744 mmHg 74%
22:00 +19°C° 0 mm 2 mps 744 mmHg 76%
23:00 +19°C° 0 mm 2 mps 744 mmHg 76%
Show more